This is the latest recevied weather packets stored in our database for station/object KA7EII-13. If no packets are shown the sender has not sent any weather packets the latest 10 day(s).
| Time | Temp. | Humidity | Pressure | Rain* | Wind** | Luminosity | Snow |
|---|---|---|---|---|---|---|---|
| 1788144693 | 61° F | 34% | 831.4 mmHg | 0 in | - | 0 W/m² | - |
| 1788144390 | 61° F | 34% | 831.4 mmHg | 0 in | - | 0 W/m² | - |
| 1788144088 | 62° F | 33% | 831.4 mmHg | 0 in | - | 0 W/m² | - |
| 1788143786 | 62° F | 33% | 831.4 mmHg | 0 in | - | 0 W/m² | - |
| 1788143485 | 62° F | 33% | 831.1 mmHg | 0 in | - | 0 W/m² | - |
| 1788143181 | 62° F | 34% | 831.2 mmHg | 0 in | - | 0 W/m² | - |
| 1788142876 | 63° F | 33% | 831.1 mmHg | 0 in | - | 0 W/m² | - |
| 1788142574 | 63° F | 34% | 831.2 mmHg | 0 in | - | 0 W/m² | - |
| 1788142270 | 63° F | 34% | 831.2 mmHg | 0 in | - | 0 W/m² | - |
| 1788141966 | 64° F | 34% | 831.2 mmHg | 0 in | - | 2 W/m² | - |
| 1788141661 | 64° F | 33% | 831 mmHg | 0 in | - | 3 W/m² | - |
| 1788141356 | 65° F | 32% | 831.1 mmHg | 0 in | - | 6 W/m² | - |
| 1788141051 | 65° F | 32% | 830.8 mmHg | 0 in | - | 8 W/m² | - |
| 1788140745 | 66° F | 32% | 831.1 mmHg | 0 in | - | 10 W/m² | - |
| 1788140441 | 66° F | 32% | 831 mmHg | 0 in | - | 12 W/m² | - |
| 1788140138 | 67° F | 32% | 831.1 mmHg | 0 in | - | 16 W/m² | - |
| 1788139832 | 67° F | 31% | 831.2 mmHg | 0 in | - | 19 W/m² | - |
| 1788139527 | 67° F | 31% | 830.9 mmHg | 0 in | - | 21 W/m² | - |
| 1788139226 | 68° F | 31% | 831.2 mmHg | 0 in | - | 23 W/m² | - |
| 1788138921 | 68° F | 31% | 831.2 mmHg | 0 in | - | 25 W/m² | - |
| 1788138617 | 69° F | 30% | 831.2 mmHg | 0 in | - | 26 W/m² | - |
| 1788138316 | 69° F | 30% | 831.3 mmHg | 0 in | - | 27 W/m² | - |
| 1788138013 | 69° F | 28% | 831.2 mmHg | 0 in | - | 30 W/m² | - |
| 1788137708 | 70° F | 30% | 831.2 mmHg | 0 in | - | 31 W/m² | - |
| 1788137407 | 70° F | 27% | 831.1 mmHg | 0 in | - | 33 W/m² | - |
* Rain latest hour (hover to see other rain measurements)
** Current wind speed in m/s (hover to see current wind gust speed)